Wind_Speed
44 43 42 41 41 41 41 42 43 43 41 41 40 40 40 39 40 40 41 42 44 44 44 44 44 44 45 45 46 47 47 47 48 48 47 47 47 47
42 40 39 40 40 40 41 42 41 41 41 40 39 38 38 38 38 39 40 41 42 42 42 43 44 45 45 45 46 45 45 46 46 46 46 47 47 46
41 40 39 39 39 39 40 40 41 41 41 39 38 37 37 37 37 38 39 40 41 41 42 42 43 43 43 44 45 44 44 44 44 44 45 45 44 43
39 38 37 37 37 37 39 39 38 37 37 37 36 37 36 37 37 38 39 40 40 40 40 41 42 43 43 44 45 44 43 42 43 43 42 42 42 41
37 36 36 36 36 36 36 36 36 36 35 35 35 35 36 36 37 37 37 38 38 39 39 40 40 41 42 42 42 41 41 41 41 42 41 40 39 39
34 33 33 33 34 34 34 34 34 34 34 33 34 34 34 35 36 36 36 35 36 36 37 37 38 39 40 39 40 39 39 39 39 39 37 36 36 36
34 33 32 31 31 32 32 32 31 31 32 33 33 33 33 34 34 33 34 33 33 35 35 36 38 38 38 38 38 37 37 37 36 35 34 33 33 33
33 32 31 30 30 29 30 31 30 30 31 31 31 32 34 35 34 33 32 33 33 34 35 35 36 36 36 36 35 35 34 34 33 32 32 32 32 32
31 31 30 30 29 29 29 30 30 31 31 29 29 31 32 33 32 33 33 33 33 34 34 33 33 34 34 33 34 33 32 32 32 32 31 31 31 30
29 29 30 30 29 29 30 30 30 30 30 29 30 30 30 30 30 31 31 31 31 32 32 32 31 31 31 31 31 31 30 31 31 31 31 31 29 28
27 28 29 28 28 29 29 29 28 27 27 28 28 29 29 29 29 29 29 29 29 30 30 30 29 29 29 29 29 29 29 29 30 30 30 29 27 26
27 27 27 26 27 28 27 26 26 25 25 26 27 27 26 26 26 27 28 28 28 28 28 29 29 29 29 28 28 29 29 29 29 29 28 27 26 26
26 26 26 26 26 26 26 25 25 24 24 24 24 24 24 24 24 25 26 26 26 26 26 27 27 28 28 28 27 28 28 28 27 26 25 25 25 26
23 24 24 25 25 25 25 25 25 24 24 24 23 22 22 23 23 23 23 23 24 24 24 25 26 26 27 27 26 26 26 25 25 24 24 24 25 25
21 21 22 23 24 24 24 24 24 24 23 21 20 21 21 21 21 21 20 21 22 23 24 24 24 25 25 24 24 23 23 22 23 23 23 23 24 24
18 18 19 20 22 23 23 23 22 21 19 19 19 20 20 20 20 20 20 21 21 22 23 23 23 23 23 23 22 22 21 21 21 21 21 21 21 21
18 18 18 18 19 21 21 21 20 19 18 18 18 18 18 18 19 20 20 20 20 20 20 21 21 21 21 20 20 19 19 20 19 19 18 18 17 17
17 17 17 17 17 18 18 18 17 17 17 16 16 17 17 18 18 18 18 18 18 19 19 18 18 18 18 18 18 17 17 17 16 15 15 14 14 13
15 15 15 15 15 15 15 15 16 15 15 15 16 16 17 17 17 16 16 16 16 17 17 16 16 16 16 16 15 15 14 13 13 12 12 11 11 10
12 12 12 13 13 13 13 14 14 14 14 14 15 15 15 15 14 14 13 13 14 14 14 13 13 13 13 13 12 12 11 10 10 10 9 8 7 6
11 11 11 12 12 12 12 12 12 12 12 12 13 12 12 12 12 11 11 11 11 11 10 10 9 10 10 10 10 9 8 8 8 7 6 5 4 3
11 11 11 11 11 11 10 10 10 10 10 10 10 10 10 10 10 10 9 9 9 9 8 8 8 8 9 9 8 7 7 6 6 5 4 4 4 3
10 10 10 9 10 10 9 9 9 9 9 9 8 8 8 8 8 8 8 8 7 7 6 6 7 7 7 6 6 5 5 4 4 4 3 3 4 3
Wind_Direction
267 268 267 266 266 267 268 269 268 267 265 265 265 265 266 268 270 270 272 273 274 275 276 275 277 278 280 282 283 284 285 285 286 287 288 288 289 290
267 267 266 266 267 268 269 269 269 268 268 266 265 264 265 267 270 271 273 274 274 274 275 277 278 279 281 283 284 284 285 286 287 288 289 289 290 290
266 267 267 269 270 270 270 270 270 270 269 267 266 265 266 267 269 271 274 274 275 275 276 277 279 280 281 283 284 286 287 287 288 289 290 291 292 291
268 268 267 269 270 270 270 271 272 270 269 268 268 267 268 269 269 271 272 274 276 277 278 279 279 280 282 284 285 286 287 287 288 289 291 293 293 291
267 267 267 267 267 269 271 270 269 269 269 269 270 269 269 269 272 273 274 276 277 278 280 281 282 283 285 286 286 286 286 288 289 291 293 294 293 291
265 265 265 265 266 268 270 268 269 269 269 269 271 271 269 270 273 275 275 277 278 280 281 283 285 287 287 286 287 287 287 288 289 292 293 294 293 293
262 262 264 265 267 268 269 268 269 268 270 271 272 271 270 270 273 274 274 276 278 281 283 284 286 287 288 288 288 288 288 288 290 292 293 293 294 294
259 261 265 265 267 268 269 268 268 269 270 272 272 272 271 272 275 275 276 277 280 281 283 285 286 287 288 288 289 289 289 289 290 291 293 293 293 294
257 261 262 264 266 267 268 270 270 271 272 273 273 275 274 274 276 277 277 281 283 283 283 285 286 286 287 289 290 291 290 289 290 292 292 293 294 293
257 259 261 263 264 267 268 271 272 272 272 271 273 274 275 276 277 278 280 282 284 285 285 285 285 285 286 288 290 292 292 292 291 292 292 293 293 292
258 260 261 261 265 268 269 270 271 271 271 272 273 273 276 276 277 278 280 283 283 284 284 284 284 284 284 285 289 292 293 293 293 292 292 291 291 293
258 258 260 263 265 266 269 270 269 270 271 272 273 274 274 275 278 281 283 284 283 283 284 284 285 284 283 285 288 290 291 293 293 293 292 292 292 293
257 258 260 262 265 267 268 267 269 271 272 271 271 273 274 276 280 283 285 284 284 286 285 285 285 285 287 287 287 289 290 291 291 292 292 292 292 294
259 260 262 264 265 265 266 267 269 271 271 272 271 272 274 277 281 283 283 283 285 286 287 287 288 288 289 289 289 289 290 291 290 292 294 294 294 295
260 262 263 263 263 263 264 266 269 270 270 271 271 272 274 277 279 280 282 284 285 286 288 288 289 291 292 292 291 291 292 292 291 293 295 296 296 295
261 262 264 263 262 261 262 264 266 266 268 270 272 274 276 278 280 282 283 285 287 288 289 290 291 294 295 296 296 295 294 294 293 294 297 299 299 298
264 267 266 265 264 262 261 263 264 265 266 269 272 274 277 281 283 284 286 287 288 289 291 293 296 299 300 299 298 298 298 297 295 297 299 302 303 303
268 268 267 266 265 261 259 260 262 263 266 268 271 273 277 281 284 285 287 289 291 292 294 295 297 299 300 300 301 302 301 300 299 300 302 304 306 306
267 268 267 265 263 260 257 258 260 261 265 268 271 273 278 281 285 287 288 290 292 295 296 297 296 298 301 304 305 305 305 306 307 307 307 307 307 308
269 270 267 263 262 260 258 259 261 263 264 269 272 274 280 284 287 288 289 292 295 297 298 298 299 301 306 309 308 308 308 310 314 313 312 309 310 314
271 272 270 264 259 256 257 259 261 262 264 268 271 276 284 288 289 288 292 298 300 301 300 299 303 309 313 315 317 319 320 321 323 324 324 323 325 330
271 273 270 262 256 255 255 256 257 259 263 269 273 278 287 290 290 291 295 300 304 304 303 303 308 313 317 319 321 326 328 330 332 335 338 345 347 356
269 269 264 258 255 253 251 252 253 258 267 273 275 282 290 292 290 290 295 301 306 306 305 308 313 318 323 326 333 341 346 351 355 357 358 4 11 29
Height
5618 5617 5617 5617 5617 5617 5616 5616 5616 5616 5618 5619 5620 5620 5620 5621 5621 5622 5622 5622 5621 5621 5620 5619 5618 5616 5614 5612 5609 5606 5603 5601 5598 5595 5591 5588 5585 5581
5607 5607 5607 5607 5607 5607 5606 5606 5605 5605 5606 5608 5609 5610 5610 5611 5612 5612 5612 5611 5610 5609 5608 5607 5606 5604 5602 5600 5597 5594 5592 5589 5586 5583 5579 5576 5573 5570
5597 5597 5597 5597 5596 5596 5596 5596 5595 5595 5596 5597 5598 5600 5601 5601 5601 5601 5601 5600 5599 5598 5597 5596 5594 5592 5590 5588 5585 5582 5580 5577 5574 5571 5568 5565 5561 5558
5587 5587 5587 5587 5587 5587 5587 5586 5585 5585 5587 5588 5589 5591 5591 5592 5592 5591 5591 5590 5589 5588 5586 5585 5583 5581 5579 5577 5574 5572 5569 5566 5563 5560 5557 5554 5550 5546
5578 5578 5579 5579 5579 5578 5578 5577 5577 5577 5578 5579 5581 5582 5582 5582 5582 5582 5581 5580 5578 5577 5576 5574 5572 5570 5568 5566 5563 5561 5558 5556 5553 5550 5546 5543 5539 5536
5569 5569 5570 5570 5570 5570 5570 5570 5570 5570 5571 5571 5572 5573 5573 5573 5573 5572 5572 5570 5569 5567 5566 5563 5561 5559 5558 5555 5553 5551 5548 5546 5543 5540 5537 5533 5530 5526
5560 5561 5562 5562 5562 5562 5562 5562 5562 5563 5563 5563 5564 5564 5564 5564 5564 5563 5562 5561 5560 5558 5557 5554 5552 5550 5548 5545 5543 5540 5538 5535 5533 5530 5527 5524 5521 5518
5552 5553 5554 5554 5554 5554 5555 5555 5555 5555 5555 5555 5555 5555 5555 5555 5554 5553 5553 5553 5552 5550 5548 5546 5543 5541 5538 5536 5533 5531 5529 5526 5523 5521 5518 5515 5513 5510
5544 5545 5546 5546 5547 5547 5547 5548 5547 5547 5547 5547 5547 5546 5546 5546 5546 5545 5544 5543 5542 5541 5539 5537 5534 5532 5529 5527 5524 5522 5520 5517 5514 5512 5510 5507 5504 5501
5535 5537 5538 5539 5539 5539 5540 5540 5539 5539 5539 5539 5538 5538 5537 5537 5537 5537 5536 5535 5534 5532 5530 5529 5526 5524 5522 5519 5516 5514 5511 5509 5506 5504 5501 5499 5496 5493
5528 5529 5530 5531 5532 5532 5532 5532 5532 5531 5530 5530 5530 5530 5529 5529 5528 5528 5527 5526 5525 5523 5521 5520 5518 5517 5515 5512 5509 5506 5503 5500 5498 5495 5493 5490 5487 5485
5521 5522 5523 5524 5524 5524 5524 5524 5524 5523 5523 5522 5522 5521 5521 5521 5520 5519 5519 5518 5517 5516 5513 5511 5510 5508 5507 5505 5502 5498 5495 5493 5490 5487 5485 5482 5479 5477
5514 5515 5515 5516 5516 5517 5517 5517 5516 5516 5516 5515 5515 5515 5514 5513 5512 5511 5511 5510 5509 5508 5506 5504 5502 5500 5498 5497 5494 5491 5488 5485 5483 5480 5477 5475 5472 5470
5507 5508 5508 5509 5509 5509 5509 5509 5509 5509 5509 5509 5508 5508 5507 5506 5506 5504 5503 5502 5501 5500 5498 5496 5494 5492 5490 5488 5487 5484 5481 5478 5476 5474 5471 5468 5465 5463
5500 5501 5501 5501 5502 5502 5502 5503 5502 5503 5503 5502 5502 5502 5501 5500 5499 5498 5497 5496 5494 5492 5490 5488 5486 5485 5483 5481 5479 5477 5475 5472 5469 5467 5465 5462 5459 5456
5494 5494 5494 5494 5495 5495 5496 5496 5496 5496 5496 5496 5496 5496 5495 5495 5494 5492 5491 5490 5488 5486 5484 5482 5480 5478 5476 5474 5472 5470 5467 5466 5464 5461 5458 5456 5453 5450
5488 5488 5489 5489 5489 5489 5489 5490 5490 5491 5491 5491 5490 5490 5489 5489 5487 5486 5485 5484 5482 5481 5479 5476 5474 5472 5470 5468 5466 5463 5461 5459 5457 5455 5452 5451 5448 5446
5482 5483 5483 5483 5483 5483 5484 5484 5485 5485 5485 5486 5486 5485 5484 5483 5482 5481 5480 5478 5477 5475 5473 5471 5469 5467 5466 5463 5461 5458 5456 5453 5452 5450 5448 5446 5445 5443
5477 5477 5477 5477 5477 5478 5478 5479 5480 5480 5480 5481 5481 5480 5480 5479 5477 5476 5475 5473 5472 5470 5468 5466 5465 5463 5461 5459 5457 5454 5452 5450 5448 5446 5444 5443 5442 5440
5473 5473 5473 5473 5473 5473 5474 5474 5475 5475 5476 5476 5476 5476 5475 5474 5473 5472 5471 5469 5468 5466 5464 5463 5461 5459 5457 5456 5454 5451 5448 5447 5445 5443 5442 5441 5440 5438
5469 5469 5469 5469 5469 5469 5470 5470 5470 5471 5471 5472 5472 5471 5471 5470 5469 5468 5467 5466 5464 5463 5461 5460 5458 5457 5454 5453 5451 5449 5447 5445 5443 5442 5440 5439 5438 5437
5465 5465 5465 5465 5465 5466 5466 5466 5467 5467 5468 5468 5468 5468 5467 5467 5466 5465 5464 5463 5461 5460 5459 5458 5456 5455 5453 5451 5449 5447 5445 5444 5442 5440 5439 5439 5438 5437
5462 5462 5461 5462 5462 5462 5463 5463 5464 5464 5464 5465 5465 5465 5464 5464 5463 5462 5462 5461 5459 5458 5457 5456 5455 5453 5451 5449 5448 5446 5444 5443 5442 5441 5440 5439 5438 5438